Regional Weather Roundup
Issued by NWS

Home | Current Version | Previous Version | Graphics & Text | Print | Product List | Glossary Off
Versions: 1 2 3 4 5 6 7 8 9 10 11 12 13 14 15 16 17 18 19 20 21 22 23 24 25 26 27 28 29 30 31 32 33 34 35 36 37 38 39 40 41 42 43 44 45 46 47 48 49 50

000
ASUS43 KTOP 250308
RWRKS

WEATHER ROUNDUP FOR KANSAS
NATIONAL WEATHER SERVICE GOODLAND KS
1000 PM CDT MON APR 24 2017

NOTE:  "FAIR" INDICATES FEW OR NO CLOUDS BELOW 12,000 FEET WITH NO
SIGNIFICANT WEATHER AND/OR OBSTRUCTIONS TO VISIBILITY.

KSZ001>006-013>018-027>032-041>047-250400-
NORTHWEST KANSAS

CITY           SKY/WX    TMP DP  RH WIND       PRES   REMARKS
GOODLAND       CLOUDY    54  43  66 E7        29.51F
HAYS           CLOUDY    63  48  58 E12       29.49R
HILL CITY      CLOUDY    63  46  54 E7        29.52R
RUSSELL        CLOUDY    66  51  58 SE14      29.49R
$$

KSZ061>065-074>080-084>089-250400-
SOUTHWEST KANSAS

CITY           SKY/WX    TMP DP  RH WIND       PRES   REMARKS
DODGE CITY     PTCLDY    64  49  57 SE13      29.48S
ELKHART          N/A     62  43  50 N5          N/A
GARDEN CITY    MOCLDY    66  47  50 E14       29.45F
GREAT BEND     CLOUDY    65  52  62 SE12      29.51R
PRATT          CLOUDY    64  49  58 S14G20    29.52S
$$

KSZ066>073-081>083-090>101-250400-
SOUTHEAST KANSAS

CITY           SKY/WX    TMP DP  RH WIND       PRES   REMARKS
CHANUTE        CLOUDY    61  47  59 SE9       29.63S
COFFEYVILLE    CLEAR     60  49  66 SE8       29.64R
HUTCHINSON     CLOUDY    64  52  64 SE10      29.54R
MEDICINE LODGE   N/A     66  51  58 SE9G18    29.52S
NEWTON         CLOUDY    62  50  64 S10       29.56S
PARSONS        CLEAR     62  47  57 SE5       29.65R
WICHITA INTL   CLOUDY    64  51  62 S12       29.55S
WICHITA JABRA  CLOUDY    64  49  57 S12       29.56S
WICHITA MCCONL MOCLDY    64  48  56 S13       29.56S
WINFIELD       PTCLDY    63  48  58 SE9       29.59R
$$

KSZ007>012-019>026-033>040-048>060-102>105-250400-
NORTHEAST KANSAS

CITY           SKY/WX    TMP DP  RH WIND       PRES   REMARKS
CONCORDIA      CLOUDY    65  53  65 S13       29.53R
EMPORIA        CLOUDY    61  50  67 SE12      29.58S
LAWRENCE       CLEAR     61  46  57 SE7       29.59F
MANHATTAN      PTCLDY    66  49  54 S8        29.53S
MARYSVILLE     CLEAR     64  48  55 S9        29.53S
OLATHE IND     CLEAR     61  44  53 S9        29.62S
OLATHE EXE     CLEAR     60  44  55 S9        29.62F
SALINA         CLOUDY    66  52  60 S13       29.52S
TOPEKA BILLARD CLOUDY    65  47  52 SE8       29.58R
TOPEKA FORBES  CLOUDY    66  46  48 S14       29.57S
$$



USA.gov is the U.S. government's official web portal to all federal, state and local government web resources and services.